Temp
18 19 19 19 19 19 19 20 20 19 19 19 19 19 19 18 19 19 19 18 19 20
19 18 20 20 20 20 20 20 20 20 20 19 19 18 18 19 18 18 19 19 19 19
19 19 19 19 19 20 20 20 20 20 19 19 18 19 19 18 19 19 19 19 19 19
21 21 20 19 19 19 19 19 19 19 20 20 19 19 19 19 19 19 19 19 18 18
19 19 20 19 19 19 19 19 19 19 19 18 20 20 19 19 18 18 18 19 19 18
18 18 18 18 18 18 18 18 18 19 19 18 19 18 19 19 19 19 19 18 19 19
17 18 18 17 18 18 18 18 18 19 19 19 19 19 19 19 19 19 18 18 18 18
16 16 17 17 19 19 19 20 20 19 19 19 19 19 19 19 19 19 18 18 18 18
16 16 15 16 17 18 19 19 20 21 21 21 19 20 19 19 19 19 19 19 19 18
16 16 16 16 15 15 16 16 16 18 20 21 21 21 21 20 19 19 19 19 19 18
15 15 15 16 16 15 15 16 16 16 16 16 19 20 21 20 20 19 19 19 19 19
14 14 14 15 15 16 16 16 16 17 17 16 16 17 17 18 17 18 19 18 19 19
12 13 13 14 15 15 16 16 16 16 16 16 16 17 17 17 17 18 18 18 19 19
11 12 12 13 14 15 15 16 16 16 17 17 17 17 17 17 18 17 18 18 19 19
Height
1543 1546 1546 1548 1548 1551 1552 1553 1554 1554 1554 1554 1555 1555 1557 1558 1560 1562 1563 1563 1564 1565
1540 1540 1543 1544 1545 1545 1547 1548 1548 1548 1549 1550 1551 1552 1552 1552 1553 1555 1558 1558 1558 1560
1536 1536 1538 1538 1539 1542 1543 1543 1545 1544 1544 1545 1545 1545 1546 1546 1547 1547 1550 1551 1552 1553
1534 1534 1535 1535 1536 1536 1539 1539 1538 1538 1538 1538 1538 1538 1540 1541 1541 1542 1543 1545 1547 1547
1526 1526 1527 1529 1530 1530 1531 1531 1532 1531 1531 1531 1531 1531 1532 1533 1535 1535 1536 1537 1539 1540
1523 1522 1523 1522 1523 1523 1524 1525 1526 1526 1526 1526 1525 1525 1526 1526 1526 1528 1529 1530 1532 1534
1520 1520 1519 1519 1519 1520 1521 1521 1521 1520 1520 1520 1521 1520 1521 1521 1520 1521 1523 1524 1525 1527
1517 1515 1515 1515 1515 1515 1516 1517 1516 1516 1516 1515 1514 1514 1513 1514 1515 1515 1516 1517 1518 1520
1515 1513 1511 1510 1509 1509 1508 1507 1508 1508 1507 1507 1508 1509 1508 1508 1508 1508 1508 1508 1510 1512
1512 1509 1508 1507 1506 1504 1503 1503 1501 1499 1499 1498 1498 1499 1499 1501 1501 1502 1501 1501 1503 1505
1509 1507 1505 1503 1502 1500 1499 1498 1497 1496 1493 1491 1489 1490 1491 1492 1493 1492 1493 1494 1496 1498
1505 1503 1501 1499 1498 1497 1495 1493 1493 1492 1489 1486 1483 1484 1483 1484 1484 1484 1483 1485 1486 1489
1498 1497 1496 1495 1493 1492 1491 1488 1488 1486 1483 1481 1477 1475 1475 1476 1477 1477 1476 1476 1478 1480
1492 1491 1489 1488 1487 1486 1486 1484 1482 1480 1478 1475 1472 1468 1468 1467 1466 1467 1469 1469 1470 1470
Wind_Speed
24 23 24 22 24 21 21 18 17 18 20 17 17 20 19 18 19 19 20 17 17 14
24 24 23 22 23 21 20 22 21 23 23 20 22 18 18 20 21 20 20 22 20 18
21 22 23 25 25 23 22 22 25 20 21 24 23 22 22 21 23 23 24 23 25 21
20 19 21 23 24 25 23 25 26 28 30 30 28 26 24 23 23 24 25 26 26 25
16 20 22 21 23 24 26 25 25 26 27 27 30 31 29 29 24 25 29 30 30 28
17 20 20 21 20 21 21 22 25 25 27 27 26 27 28 30 31 30 30 30 30 31
16 17 14 17 19 14 17 20 22 23 26 26 26 26 26 26 28 28 28 30 31 29
14 14 16 21 25 27 25 23 22 23 23 22 23 27 29 28 28 30 28 28 31 31
16 15 14 14 17 20 20 21 22 24 26 27 24 24 27 30 28 27 31 32 31 32
18 17 16 15 15 16 17 18 19 20 23 26 28 27 28 28 31 31 30 30 30 27
17 17 18 18 18 18 18 17 15 19 20 22 28 30 29 31 31 30 32 34 31 29
19 17 18 19 18 19 20 18 19 19 21 22 24 26 29 31 30 28 31 32 32 34
21 21 21 21 20 19 19 19 19 21 18 22 26 25 24 28 28 30 29 29 33 34
26 25 26 24 22 20 19 20 23 24 23 21 22 23 25 27 27 32 28 29 30 31
Wind_Direction
237 238 240 242 241 242 237 239 242 240 254 236 238 247 246 248 252 245 243 245 234 243
236 237 233 237 247 246 242 246 244 240 242 243 260 247 250 248 244 247 244 239 234 240
244 242 241 242 234 237 246 244 236 250 243 244 251 254 251 248 248 247 246 246 242 233
244 246 248 247 250 249 241 239 236 246 248 247 249 253 254 247 253 246 248 243 238 240
247 242 244 255 253 254 251 247 247 247 249 251 250 252 252 255 246 248 248 253 251 245
260 258 250 251 254 254 257 255 253 253 256 253 251 253 254 254 256 256 249 250 254 253
292 271 268 264 254 263 277 272 259 252 253 255 254 253 252 254 258 257 253 250 256 252
294 287 271 268 266 275 283 285 274 270 268 269 271 261 252 248 248 253 254 252 257 256
298 285 285 280 273 273 276 273 275 268 268 269 261 261 263 256 249 249 251 254 254 252
292 285 280 280 277 279 283 283 278 269 265 265 263 261 260 260 252 251 251 253 253 253
288 292 288 283 284 288 286 285 283 285 281 271 267 263 259 260 264 258 251 249 246 251
280 283 288 285 280 281 281 280 281 285 279 283 275 264 265 257 257 256 253 253 250 241
282 279 282 281 276 275 284 284 282 285 286 287 282 277 276 272 258 254 254 250 249 247
274 272 279 277 278 277 282 286 290 289 285 290 302 305 277 262 260 253 249 249 241 246